www.pogodaiklimat.ru

Погода и климат >> Архив погоды >> Сейшелы >> Сейшелы


АРХИВ ПОГОДЫ на Сейшелах

Время (UTC), дата Ветер
(напр.,м/с)
 
Видим.   Явления Облачность Т
(С)
Тd
(С)
f
(%)
Тe
(С)
Тes
(С)
Комфортность P
(гПа)
Po
(гПа)
Тmin
(С)
Tmax
(С)
R
(мм)
R24
(мм)
S
(см)
15 18.06 ЮВ 5
{9}
30 км 9/3 600 м
[Cu Sc Ac trans Cs]
+28.2 +24.7 81 +40 +40 очень
душно
1012.2 1011.9
18 18.06 ЮВ 5
{8}
20 км 9/3 600 м
[Cu med, cong Ac lent Cs]
+28.1 +24.8 82 +40 +40 очень
душно
1013.1 1012.8 +30.1 0.4
21 18.06 ЮВ 3
{9}
30 км в посл. час ливневой дождь 8/4 500 м
[Cu Sc Ac trans Ci ing]
+26.1 +23.8 87 +36 +36 очень
душно
1012.2 1011.9
00 19.06 ЮВ 2
{6}
40 км {ливн. осадки} 8/8 480 м
[Cu Sc]
+26.7 +24.4 87 +37 +37 очень
душно
1010.7 1010.4
03 19.06 Ю 2
{4}
40 км 9/6 630 м
[Cu med, cong Ac lent Ci]
+27.5 +24.8 85 +39 +39 очень
душно
1011.3 1011.0
06 19.06 ЮВ 5
{6}
40 км в посл. час ливневой дождь 6/5 660 м
[Cu med, cong Ac lent Ci sp]
+28.8 +25.5 82 +42 +45 опасность
перегрева
1012.6 1012.3 +25.9 1
09 19.06 ЮВ 5
{8}
60 км 4/3 750 м
[Cu med, cong Ac lent Ci sp]
+30.0 +24.5 72 +42 +48 опасность
перегрева
1011.5 1011.2
12 19.06 З 3
{8}
50 км 5/4 750 м
[Cu med, cong Ac trans Ci sp]
+30.3 +23.1 65 +40 +43 очень
душно
1010.5 1010.2
15 19.06 нст 1
{8}
30 км 5/4 800 м
[Cu med, cong Ci sp]
+27.1 +23.2 79 +36 +36 очень
душно
1011.5 1011.2
18 19.06 ЮЗ 4
{6}
60 км 5/3 800 м
[Cu hum Ci sp]
+28.4 +23.0 73 +38 +38 очень
душно
1013.1 1012.8 +30.6 0.2
21 19.06 нст 2
{6}
20 км 5/3 720 м
[Cu hum Ci fib]
+28.1 +23.4 76 +38 +38 очень
душно
1012.6 1012.3
00 20.06 ЮВ 3
{6}
50 км {ливн. осадки} 6/3 720 м
[Cu med, cong Ci fib]
+27.3 +24.0 82 +38 +38 очень
душно
1010.6 1010.3
03 20.06 ЮВ 3
{7}
60 км 5/3 660 м
[Cu hum Ci fib]
+27.5 +24.0 81 +38 +38 очень
душно
1011.1 1010.8
06 20.06 ЮВ 6
{11}
40 км 5/4 700 м
[Cu hum Ci fib]
+29.2 +24.4 75 +41 +43 опасность
перегрева
1012.7 1012.4 +26.6 0.2
09 20.06 ЮВ 6
{11}
50 км 8/6 720 м
[Cu Sc Ci fib]
+29.7 +25.1 76 +43 +45 опасность
перегрева
1011.2 1010.9
12 20.06 ЮВ 6
{11}
40 км 6/6 720 м
[Cu Sc Ci fib]
+28.8 +24.2 76 +40 +41 очень
душно
1010.2 1009.9
15 20.06 ЮВ 5
{11}
30 км 5/4 540 м
[Cb cap Ci ing]
+27.7 +24.4 82 +39 +39 очень
душно
1010.9 1010.6
18 20.06 Ю 4
{12}
30 км {ливн. осадки} 3/3 630 м
[Cu hum]
+27.6 +24.3 82 +39 +39 очень
душно
1012.0 1011.7 +30.4
21 20.06 ЮВ 3
{10}
10 км 6/5 660 м
[Cu Sc Ci sp]
+27.2 +24.1 83 +38 +38 очень
душно
1011.5 1011.2
00 21.06 ЮВ 5
{12}
10 км 5/5 600 м
[Cu med, cong]
+27.2 +24.1 83 +38 +38 очень
душно
1010.6 1010.3
03 21.06 ЮВ 5
{10}
20 км слаб. ливневой дождь 8/6 540 м
[Cb cap Ci sp]
+27.0 +23.9 83 +37 +37 очень
душно
1011.9 1011.6
06 21.06 ЮВ 6
{10}
40 км {ливн. осадки} 9/3 630 м
[Cu med, cong Ac lent Ci]
+29.4 +24.6 75 +42 +44 опасность
перегрева
1013.5 1013.2 +26.3 0.4
09 21.06 ЮВ 6
{9}
50 км 6/3 660 м
[Cu med, cong Ci sp]
+29.8 +24.3 72 +42 +46 опасность
перегрева
1012.0 1011.7
12 21.06 ЮВ 5
{10}
40 км 9/4 600 м
[Cu Sc Ci]
+28.5 +24.4 79 +40 +42 очень
душно
1010.4 1010.1
15 21.06 ЮВ 5
{9}
30 км 8/4 540 м
[Cu Sc Ci]
+27.7 +24.4 82 +39 +39 очень
душно
1011.0 1010.7
18 21.06 ЮВ 5
{9}
10 км 3/3 660 м
[Cu med, cong]
+27.6 +24.1 81 +38 +38 очень
душно
1012.0 1011.7 +29.9 0.6
21 21.06 ЮВ 4
{8}
40 км 5/5 720 м
[Cu hum]
+27.3 +24.2 83 +38 +38 очень
душно
1010.8 1010.5
00 22.06 ЮВ 5
{9}
40 км 5/5 660 м
[Cu Sc]
+27.4 +24.1 82 +38 +38 очень
душно
1009.6 1009.3
03 22.06 ЮВ 3
{10}
40 км 4/3 600 м
[Cu Sc Ci sp]
+27.2 +23.9 82 +37 +38 очень
душно
1010.4 1010.1
06 22.06 ЮВ 5
{11}
40 км 4/4 660 м
[Cu Sc Ci sp]
+29.0 +24.9 79 +42 +46 опасность
перегрева
1011.6 1011.3 +26.9 0.6
09 22.06 ЮВ 4
{12}
40 км {ливн. осадки} 6/6 660 м
[Cu Sc Ac lent Ci sp]
+28.8 +25.3 81 +42 +46 опасность
перегрева
1010.3 1010.0
12 22.06 нст 4
{12}
3000 м ливневой дождь 8/8 300 м
[Cu Sc Ac lent Ci sp]
+26.8 +24.7 88 +38 +39 очень
душно
1009.1 1008.8
15 22.06 ЮВ 4
{10}
20 км {ливн. осадки} 8/8 300 м
[Cu Sc Ac lent Ci sp]
+25.7 +24.5 93 +36 +36 очень
душно
1010.6 1010.3
18 22.06 ЮВ 3
{10}
40 км в посл. час ливневой дождь 5/4 540 м
[Cu Sc Ac lent]
+26.0 +23.7 87 +35 +35 очень
душно
1011.3 1011.0 +29.5 5
21 22.06 ЮВ 3
{6}
15 км 3/3 630 м
[Cu med, cong]
+26.8 +24.3 86 +37 +37 очень
душно
1010.1 1009.8
00 23.06 ЮВ 5
{9}
15 км в посл. час ливневой дождь 9/9 360 м
[Cu Sc]
+26.6 +24.3 87 +37 +37 очень
душно
1009.1 1008.8
03 23.06 ЮВ 4
{11}
20 км слаб. ливневой дождь 4/4 300 м
[Cu Sc Ci fib]
+27.2 +24.1 83 +38 +38 очень
душно
1010.4 1010.1
06 23.06 Ю 5
{10}
50 км {ливн. осадки} 4/3 720 м
[Cu med, cong Ac lent]
+29.2 +24.4 75 +41 +45 опасность
перегрева
1011.2 1010.9 +25.7 8
09 23.06 Ю 6
{12}
20 км 4/4 720 м
[Cu med, cong Ac lent]
+29.4 +23.9 72 +40 +44 очень
душно
1009.5 1009.2
12 23.06 нст 5
{11}
50 км 3/3 720 м
[Cu med, cong]
+29.6 +23.7 71 +41 +43 опасность
перегрева
1008.0 1007.7
15 23.06 Ю 6
{9}
30 км 3/3 750 м
[Cu med, cong]
+27.8 +23.1 76 +37 +37 очень
душно
1009.2 1008.9
18 23.06 Ю 6
{12}
40 км 4/4 720 м
[Cu hum Ci sp]
+27.6 +23.3 77 +37 +37 очень
душно
1011.0 1010.7 +30.3
21 23.06 Ю 4
{12}
20 км 3/3 720 м
[Cu hum]
+27.2 +22.7 76 +36 +36 очень
душно
1010.2 1009.9
00 24.06 Ю 3
{9}
30 км 4/3 660 м
[Cu hum Ci fib]
+27.1 +23.2 79 +36 +36 очень
душно
1009.0 1008.7
03 24.06 ЮВ 4
{7}
40 км 4/4 660 м
[Cu hum Ci sp]
+27.1 +23.4 80 +37 +37 очень
душно
1010.2 1009.9
06 24.06 нст 5
{10}
30 км 3/3 570 м
[Cu med, cong]
+29.2 +24.2 74 +41 +45 опасность
перегрева
1011.6 1011.3 +26.8
09 24.06 Ю 4
{14}
30 км 8/3 660 м
[Cu Sc Ac trans]
+30.1 +24.6 72 +42 +47 опасность
перегрева
1009.9 1009.6
12 24.06 ЮВ 4
{13}
30 км 1/1 570 м
[Cu Sc Ac lent]
+29.0 +24.2 75 +40 +43 очень
душно
1008.4 1008.1
15 24.06 ЮВ 4
{10}
30 км 9/8 540 м
[Cu Sc Ac trans]
+27.8 +24.1 80 +39 +39 очень
душно
1010.0 1009.7
18 24.06 Ю 2
{8}
30 км в посл. час ливневой дождь 5/5 630 м
[Cu Sc Ac lent]
+27.1 +24.2 84 +38 +38 очень
душно
1011.3 1011.0 +31.0
21 24.06 Ю 4
{10}
10 км {ливн. осадки} 6/6 660 м
[Cu med, cong]
+27.2 +24.3 84 +38 +38 очень
душно
1010.6 1010.3
00 25.06 Ю 3
{10}
10 км в посл. час ливневой дождь 6/5 720 м
[Cu med, cong Ac lent Ci sp]
+26.8 +23.9 84 +37 +37 очень
душно
1009.5 1009.2
03 25.06 Ю 4
{10}
40 км 6/6 450 м
[Cu Sc Ac lent]
+27.2 +24.7 86 +39 +39 очень
душно
1010.8 1010.5
06 25.06 ЮВ 7
{9}
30 км {ливн. осадки} 8/8 420 м
[Cu med, cong]
+29.4 +25.3 79 +43 +44 опасность
перегрева
1012.0 1011.7 +25.5 6
09 25.06 ЮВ 6
{9}
40 км 6/6 660 м
[Cu med, cong]
+29.4 +25.5 80 +43 +46 опасность
перегрева
1010.9 1010.6
12 25.06 ЮВ 4
{8}
30 км 6/6 720 м
[Cu med, cong]
+28.8 +25.3 81 +42 +43 опасность
перегрева
1009.8 1009.5

 

Местоположение метеостанции Сейшелы (Сейшелы): широта -4.67 долгота 55.52 высота над уровнем моря 3 м.

В архиве по умолчанию представлена погода на Сейшелах за последнюю неделю. Архивные данные за месяц целиком и за предыдущие месяцы, начиная с января 2011 года, Вы можете получить, выбрав интересующий диапазон дат из раскрывающегося списка и нажав кнопку "Ввод!".


*Определитесь, кто Вы:
робот инопланетянин человек

Внимание! Время в таблицах - всемирное. Для получения местного времени необходимо прибавить поправку, которая равна 4 ч.

Смотрите также архив погоды в соседних городах и на ближайших метеорологических станциях:

Погода на Агалега (Маврикий) (655 км)
Погода в Анциранане (Мадагаскар) (1094 км)
Погода на Острове Глорьёз (Реюньон) (1190 км)
Погода в Самбаве (Мадагаскар) (1219 км)
Погода в Серже-Фролоу (Реюньон) (1243 км)
Погода в Аэропорту Fascene (Мадагаскар) (1244 км)
Погода в Анталахе (Мадагаскар) (1274 км)
Погода в Могадишо (Сомали) (1354 км)
Погода в Сент-Брендоне (Маврикий) (1385 км)
Погода в Анцухихи (Мадагаскар) (1404 км)

Пояснения к столбцам:

Ветер - указаны скорость ветра в м/с - средняя за 10 мин, порывы в срок и между сроками (в фигурных скобках) и направление, откуда дует ветер: С - северный, СВ - северо-восточный, В - восточный, ЮВ - юго-восточный, Ю - южный, ЮЗ - юго-западный, З - западный, СЗ - северо-западный.
Видимость - горизонтальная дальность видимости в метрах или километрах. При видимости от 1 до 10 км при отсутствии осадков обычно наблюдается дымка, при ухудшении видимости до 1 км и менее - туман. В сухую погоду видимость может ухудшаться дымом, пылью или мглою.
Явления - указаны атмосферные явления, наблюдавшиеся в срок или в последний час перед сроком; фигурными скобками обозначены явления, наблюдавшиеся между сроками (за 1-3 часа до срока); квадратными скобками обозначены град или гололедные отложения с указанием их диаметра в мм.
Облачность - указаны через наклонную черту общая и нижняя облачность в баллах и высота нижней границы облаков в метрах; квадратными скобками обозначены формы облаков: Ci - перистые, Cs - перисто-слоистые, Cc - перисто-кучевые, Ac - высококучевые, As - высокослоистые, Sc - слоисто-кучевые, Ns - слоисто-дождевые, Cu - кучевые, Cb - кучево-дождевые. Подробнее классификацию облаков см. в Атласе облаков (PDF).
T - Температура воздуха - температура, измеренная на высоте 2 м над землей.
Td - Температура точки росы - температура, при понижении до которой содержащийся в воздухе водяной пар достигнет насыщения.
f - Относительная влажность воздуха - влажноcть воздуха, измеренная на высоте 2 м над землей.
Te - Эффективная температура - температура, которую ощущает одетый по сезону человек в тени. Характеристика душности погоды. При расчете учитывается влияние влажности воздуха и скорости ветра на теплоощущения человека.
Tes - Эффективная температура на солнце - температура, которую ощущает человек, с поправкой на солнечный нагрев. Характеристика знойности погоды. Зависит от высоты солнца над горизонтом, облачности и скорости ветра. Ночью, в пасмурную погоду, а также при ветре 12 м/с и более поправка равна нулю.
P - Атмосферное давление - приведенное к уровню моря атмосферное давление.
Po - Атмосферное давление - измеренное на уровне метеостанции атмосферное давление.
Tmin - Минимальная температура - минимум температуры воздуха на высоте 2 м над землей.
Tmax - Максимальная температура - максимум температуры воздуха на высоте 2 м над землей.
R - Количество осадков - Количество выпавших осадков за период времени, мм. При наведении курсора мыши на число - период времени, за который выпало указанное количество осадков.
R24 - Количество осадков - Количество выпавших осадков за 24 часа, мм.
S - Снежный покров - Высота снежного покрова, см. При наведении курсора мыши на число - состояние снежного покрова и степень покрытия местности в баллах.